Time,TemperatureF,DewpointF,PressureIn,WindDirection,WindDirectionDegrees,WindSpeedMPH,WindSpeedGustMPH,Humidity,HourlyPrecipIn,Conditions,Clouds,dailyrainin,SoftwareType,DateUTC
2013-07-19 00:02:00,73.0,73.0,-100.00,SSW,210,7.0,7.0,99,-99.99,,,-99.99,,2013-07-19 05:02:00,
2013-07-19 00:43:00,75.0,71.0,-100.00,WNW,295,11.0,14.0,89,-99.99,,,-99.99,,2013-07-19 05:43:00,
2013-07-19 00:53:00,75.0,71.0,-100.00,WNW,295,11.0,14.0,89,-99.99,,,-99.99,,2013-07-19 05:53:00,
2013-07-19 01:01:00,75.0,71.0,-100.00,WNW,295,11.0,14.0,89,-99.99,,,-99.99,,2013-07-19 06:01:00,
2013-07-19 01:10:00,70.0,66.0,-100.00,NW,310,14.0,16.0,86,-99.99,,,-99.99,,2013-07-19 06:10:00,
2013-07-19 01:43:00,70.0,66.0,-100.00,NW,310,14.0,16.0,86,-99.99,,,-99.99,,2013-07-19 06:43:00,
2013-07-19 01:53:00,70.0,66.0,-100.00,NW,310,14.0,16.0,86,-99.99,,,-99.99,,2013-07-19 06:53:00,
2013-07-19 02:01:00,70.0,66.0,-100.00,NW,310,14.0,16.0,86,-99.99,,,-99.99,,2013-07-19 07:01:00,
2013-07-19 02:43:00,68.0,67.0,-100.00,NW,305,13.0,17.0,97,-99.99,,,-99.99,,2013-07-19 07:43:00,
2013-07-19 02:53:00,68.0,67.0,-100.00,NW,305,13.0,17.0,97,-99.99,,,-99.99,,2013-07-19 07:53:00,
2013-07-19 03:01:00,68.0,67.0,-100.00,NW,305,13.0,17.0,97,-99.99,,,-99.99,,2013-07-19 08:01:00,
2013-07-19 03:10:00,66.0,66.0,-100.00,NW,315,12.0,15.0,99,-99.99,,,-99.99,,2013-07-19 08:10:00,
2013-07-19 03:43:00,66.0,66.0,-100.00,NW,315,12.0,15.0,99,-99.99,,,-99.99,,2013-07-19 08:43:00,
2013-07-19 03:52:00,66.0,66.0,-100.00,NW,315,12.0,15.0,99,-99.99,,,-99.99,,2013-07-19 08:52:00,
2013-07-19 04:02:00,66.0,66.0,-100.00,NW,315,12.0,15.0,99,-99.99,,,-99.99,,2013-07-19 09:02:00,
2013-07-19 04:32:00,65.0,64.0,-100.00,NW,305,11.0,13.0,99,-99.99,,,-99.99,,2013-07-19 09:32:00,
2013-07-19 04:43:00,65.0,64.0,-100.00,NW,305,11.0,13.0,99,-99.99,,,-99.99,,2013-07-19 09:43:00,
2013-07-19 04:52:00,65.0,64.0,-100.00,NW,305,11.0,13.0,99,-99.99,,,-99.99,,2013-07-19 09:52:00,
2013-07-19 05:01:00,65.0,64.0,-100.00,NW,305,11.0,13.0,99,-99.99,,,-99.99,,2013-07-19 10:01:00,
2013-07-19 05:33:00,63.0,63.0,-100.00,WNW,295,9.0,12.0,99,-99.99,,,-99.99,,2013-07-19 10:33:00,
2013-07-19 05:43:00,63.0,63.0,-100.00,WNW,295,9.0,12.0,99,-99.99,,,-99.99,,2013-07-19 10:43:00,
2013-07-19 05:52:00,63.0,63.0,-100.00,WNW,295,9.0,12.0,99,-99.99,,,-99.99,,2013-07-19 10:52:00,
2013-07-19 06:02:00,63.0,63.0,-100.00,WNW,295,9.0,12.0,99,-99.99,,,-99.99,,2013-07-19 11:02:00,
2013-07-19 06:43:00,63.0,63.0,-100.00,WNW,295,7.0,10.0,99,-99.99,,,-99.99,,2013-07-19 11:43:00,
2013-07-19 06:52:00,63.0,63.0,-100.00,WNW,295,7.0,10.0,99,-99.99,,,-99.99,,2013-07-19 11:52:00,
2013-07-19 07:01:00,63.0,63.0,-100.00,WNW,295,7.0,10.0,99,-99.99,,,-99.99,,2013-07-19 12:01:00,
2013-07-19 07:44:00,65.0,65.0,-100.00,WNW,290,10.0,11.0,99,-99.99,,,-99.99,,2013-07-19 12:44:00,
2013-07-19 07:52:00,65.0,65.0,-100.00,WNW,290,10.0,11.0,99,-99.99,,,-99.99,,2013-07-19 12:52:00,
2013-07-19 08:02:00,65.0,65.0,-100.00,WNW,290,10.0,11.0,99,-99.99,,,-99.99,,2013-07-19 13:02:00,
2013-07-19 08:43:00,68.0,66.0,-100.00,NW,305,7.0,11.0,94,-99.99,,,-99.99,,2013-07-19 13:43:00,
2013-07-19 08:53:00,68.0,66.0,-100.00,NW,305,7.0,11.0,94,-99.99,,,-99.99,,2013-07-19 13:53:00,
2013-07-19 09:02:00,68.0,66.0,-100.00,NW,305,7.0,11.0,94,-99.99,,,-99.99,,2013-07-19 14:02:00,
2013-07-19 09:11:00,71.0,67.0,-100.00,WNW,300,9.0,12.0,86,-99.99,,,-99.99,,2013-07-19 14:11:00,
2013-07-19 09:43:00,71.0,67.0,-100.00,WNW,300,9.0,12.0,86,-99.99,,,-99.99,,2013-07-19 14:43:00,
2013-07-19 09:53:00,71.0,67.0,-100.00,WNW,300,9.0,12.0,86,-99.99,,,-99.99,,2013-07-19 14:53:00,
2013-07-19 10:02:00,71.0,67.0,-100.00,WNW,300,9.0,12.0,86,-99.99,,,-99.99,,2013-07-19 15:02:00,
2013-07-19 10:10:00,74.0,65.0,-100.00,WNW,300,12.0,13.0,76,-99.99,,,-99.99,,2013-07-19 15:10:00,
2013-07-19 10:32:00,74.0,65.0,-100.00,WNW,300,12.0,13.0,76,-99.99,,,-99.99,,2013-07-19 15:32:00,
2013-07-19 10:43:00,74.0,65.0,-100.00,WNW,300,12.0,13.0,76,-99.99,,,-99.99,,2013-07-19 15:43:00,
2013-07-19 10:52:00,74.0,65.0,-100.00,WNW,300,12.0,13.0,76,-99.99,,,-99.99,,2013-07-19 15:52:00,
2013-07-19 11:01:00,74.0,65.0,-100.00,WNW,300,12.0,13.0,76,-99.99,,,-99.99,,2013-07-19 16:01:00,
2013-07-19 11:10:00,76.0,65.0,-100.00,WNW,300,11.0,12.0,68,-99.99,,,-99.99,,2013-07-19 16:10:00,
2013-07-19 11:43:00,76.0,65.0,-100.00,WNW,300,11.0,12.0,68,-99.99,,,-99.99,,2013-07-19 16:43:00,
2013-07-19 11:53:00,76.0,65.0,-100.00,WNW,300,11.0,12.0,68,-99.99,,,-99.99,,2013-07-19 16:53:00,
2013-07-19 12:02:00,76.0,65.0,-100.00,WNW,300,11.0,12.0,68,-99.99,,,-99.99,,2013-07-19 17:02:00,
2013-07-19 12:10:00,79.0,65.0,-100.00,WNW,295,15.0,19.0,62,-99.99,,,-99.99,,2013-07-19 17:10:00,
2013-07-19 12:32:00,79.0,65.0,-100.00,WNW,295,15.0,19.0,62,-99.99,,,-99.99,,2013-07-19 17:32:00,
2013-07-19 12:43:00,79.0,65.0,-100.00,WNW,295,15.0,19.0,62,-99.99,,,-99.99,,2013-07-19 17:43:00,
2013-07-19 12:52:00,79.0,65.0,-100.00,WNW,295,15.0,19.0,62,-99.99,,,-99.99,,2013-07-19 17:52:00,
2013-07-19 13:01:00,79.0,65.0,-100.00,WNW,295,15.0,19.0,62,-99.99,,,-99.99,,2013-07-19 18:01:00,
2013-07-19 13:10:00,81.0,61.0,-100.00,NW,310,13.0,17.0,52,-99.99,,,-99.99,,2013-07-19 18:10:00,
2013-07-19 13:42:00,81.0,61.0,-100.00,NW,310,13.0,17.0,52,-99.99,,,-99.99,,2013-07-19 18:42:00,
2013-07-19 13:52:00,81.0,61.0,-100.00,NW,310,13.0,17.0,52,-99.99,,,-99.99,,2013-07-19 18:52:00,
2013-07-19 14:01:00,81.0,61.0,-100.00,NW,310,13.0,17.0,52,-99.99,,,-99.99,,2013-07-19 19:01:00,
2013-07-19 14:43:00,80.0,60.0,-100.00,NW,305,14.0,17.0,51,-99.99,,,-99.99,,2013-07-19 19:43:00,
2013-07-19 14:52:00,80.0,60.0,-100.00,NW,305,14.0,17.0,51,-99.99,,,-99.99,,2013-07-19 19:52:00,
2013-07-19 15:01:00,80.0,60.0,-100.00,NW,305,14.0,17.0,51,-99.99,,,-99.99,,2013-07-19 20:01:00,
2013-07-19 15:10:00,80.0,61.0,-100.00,WNW,295,11.0,12.0,53,-99.99,,,-99.99,,2013-07-19 20:10:00,
2013-07-19 15:43:00,80.0,61.0,-100.00,WNW,295,11.0,12.0,53,-99.99,,,-99.99,,2013-07-19 20:43:00,
2013-07-19 15:52:00,80.0,61.0,-100.00,WNW,295,11.0,12.0,53,-99.99,,,-99.99,,2013-07-19 20:52:00,
2013-07-19 16:01:00,80.0,61.0,-100.00,WNW,295,11.0,12.0,53,-99.99,,,-99.99,,2013-07-19 21:01:00,
2013-07-19 16:43:00,77.0,62.0,-100.00,NW,305,11.0,14.0,59,-99.99,,,-99.99,,2013-07-19 21:43:00,
2013-07-19 16:52:00,77.0,62.0,-100.00,NW,305,11.0,14.0,59,-99.99,,,-99.99,,2013-07-19 21:52:00,
2013-07-19 17:01:00,77.0,62.0,-100.00,NW,305,11.0,14.0,59,-99.99,,,-99.99,,2013-07-19 22:01:00,
2013-07-19 17:43:00,68.0,65.0,-100.00,West,265,9.0,10.0,92,-99.99,,,-99.99,,2013-07-19 22:43:00,
2013-07-19 17:52:00,68.0,65.0,-100.00,West,265,9.0,10.0,92,-99.99,,,-99.99,,2013-07-19 22:52:00,
2013-07-19 18:01:00,68.0,65.0,-100.00,West,265,9.0,10.0,92,-99.99,,,-99.99,,2013-07-19 23:01:00,
2013-07-19 19:43:00,73.0,68.0,-100.00,West,275,9.0,12.0,87,-99.99,,,-99.99,,2013-07-20 00:43:00,
2013-07-19 19:52:00,73.0,68.0,-100.00,West,275,9.0,12.0,87,-99.99,,,-99.99,,2013-07-20 00:52:00,
2013-07-19 20:01:00,73.0,68.0,-100.00,West,275,9.0,12.0,87,-99.99,,,-99.99,,2013-07-20 01:01:00,
2013-07-19 20:10:00,72.0,69.0,-100.00,West,275,7.0,9.0,92,-99.99,,,-99.99,,2013-07-20 01:10:00,
2013-07-19 20:52:00,72.0,69.0,-100.00,West,275,7.0,9.0,92,-99.99,,,-99.99,,2013-07-20 01:52:00,
2013-07-19 21:02:00,72.0,69.0,-100.00,West,275,7.0,9.0,92,-99.99,,,-99.99,,2013-07-20 02:02:00,
2013-07-19 21:44:00,70.0,64.0,-100.00,North,0,6.0,7.0,83,-99.99,,,-99.99,,2013-07-20 02:44:00,
2013-07-19 21:52:00,70.0,64.0,-100.00,North,0,6.0,7.0,83,-99.99,,,-99.99,,2013-07-20 02:52:00,
2013-07-19 22:02:00,70.0,64.0,-100.00,North,0,6.0,7.0,83,-99.99,,,-99.99,,2013-07-20 03:02:00,
2013-07-19 22:10:00,67.0,59.0,-100.00,North,0,4.0,5.0,78,-99.99,,,-99.99,,2013-07-20 03:10:00,
2013-07-19 22:44:00,67.0,59.0,-100.00,North,0,4.0,5.0,78,-99.99,,,-99.99,,2013-07-20 03:44:00,
2013-07-19 22:53:00,67.0,59.0,-100.00,North,0,4.0,5.0,78,-99.99,,,-99.99,,2013-07-20 03:53:00,
2013-07-19 23:02:00,67.0,59.0,-100.00,North,0,4.0,5.0,78,-99.99,,,-99.99,,2013-07-20 04:02:00,